Home > Weather > Schwabach > Past weeks

Flag for Germany Past Weather in Schwabach, Bavaria, Germany — Yesterday and Last 2 Weeks

Now
61 °F

Sunny.


Feels Like: 61 °F
Forecast: 53 / 70 °F
Wind: 1 mph from North

Location: Nuernberg

Current Time: Jun 26, 2016 at 11:03:59 PM

Latest Report: Jun 26, 2016 at 10:20 PM


Visibility: 10 mi

Pressure: 30.09 "Hg

Humidity: 72%

Dew Point: 52 °F

Location of SchwabachLocation

Past Weather in Schwabach — Graph

°F

Schwabach Temperature Yesterday

Maximum temperature yesterday: 82 °F (at 4:20 PM)
Minimum temperature yesterday: 61 °F (at 10:50 PM)
Average temperature yesterday: 72 °F

High & Low Weather Summary for the Past Weeks

 TemperatureHumidityPressure
High91 °F (Jun 24, 3:20 PM)100% (Jun 12, 4:50 AM)30.27 "Hg (Jun 12, 4:50 AM)
Low46 °F (Jun 20, 5:20 AM)28% (Jun 24, 4:50 PM)29.53 "Hg (Jun 14, 4:20 PM)
Average64 °F76%29.94 "Hg
* Reported Jun 11 9:20 PM — Jun 26 9:50 PM, Schwabach, Weather by CustomWeather, © 2016

Note: Actual official high and low records may vary slightly from our data, if they occured in-between our weather recording intervals... More about our weather records

Advertising

Schwabach Weather History for the Previous 24 Hours

Scroll right to see more
 ConditionsComfort  
Time TempWeatherWind HumidityBarometerVisibility
9:50 PM
Sun, Jun 26
63 °FSunny.No wind68%30.09 "Hg10 mi
9:20 PM64 °FSunny.No wind64%30.07 "Hg10 mi
8:50 PM66 °FSunny.2 mph60%30.07 "Hg10 mi
8:20 PM68 °FPassing clouds.3 mph53%30.07 "HgN/A
7:50 PM70 °FPassing clouds.3 mph46%30.07 "HgN/A
7:20 PM70 °FScattered clouds.6 mph43%30.07 "HgN/A
6:50 PM70 °FScattered clouds.3 mph46%30.07 "HgN/A
6:20 PM68 °FBroken clouds.3 mph46%30.07 "HgN/A
5:50 PM68 °FBroken clouds.6 mph46%30.07 "HgN/A
5:20 PM68 °FPartly sunny.6 mph46%30.07 "HgN/A
4:50 PM68 °FPartly sunny.6 mph43%30.09 "HgN/A
4:20 PM68 °FPartly sunny.6 mph46%30.09 "HgN/A
3:50 PM68 °FPartly sunny.6 mph49%30.09 "HgN/A
3:20 PM66 °FPartly sunny.5 mph52%30.09 "HgN/A
2:50 PM68 °FBroken clouds.5 mph53%30.09 "HgN/A
2:20 PM68 °FBroken clouds.7 mph53%30.09 "HgN/A
1:50 PM66 °FPartly sunny.6 mph56%30.09 "HgN/A
1:20 PM66 °FBroken clouds.7 mph52%30.09 "HgN/A
12:50 PM68 °FPartly sunny.6 mph56%30.09 "HgN/A
12:20 PM66 °FPartly sunny.5 mph56%30.09 "HgN/A
11:50 AM66 °FPartly sunny.5 mph60%30.12 "HgN/A
11:20 AM63 °FPartly sunny.6 mph64%30.12 "HgN/A
10:50 AM63 °FPartly sunny.7 mph64%30.12 "HgN/A
10:20 AM64 °FScattered clouds.8 mph64%30.12 "HgN/A
9:50 AM64 °FScattered clouds.6 mph64%30.12 "HgN/A
9:20 AM61 °FScattered clouds.6 mph72%30.12 "HgN/A
8:50 AM61 °FScattered clouds.3 mph77%30.12 "HgN/A
8:20 AM59 °FScattered clouds.8 mph82%30.12 "HgN/A
7:50 AM59 °FPassing clouds.7 mph88%30.09 "HgN/A
7:20 AM59 °FScattered clouds.6 mph88%30.09 "HgN/A
6:50 AM59 °FPartly sunny.2 mph88%30.09 "HgN/A
6:20 AM57 °FPartly sunny.5 mph88%30.09 "HgN/A
5:50 AM57 °FPassing clouds.No wind94%30.09 "HgN/A
5:20 AM57 °FPassing clouds.2 mph88%30.07 "HgN/A
4:50 AM57 °FPassing clouds.3 mph88%30.07 "HgN/A
4:20 AM57 °FPassing clouds.2 mph94%30.07 "HgN/A
3:50 AM57 °FPartly cloudy.5 mph94%30.07 "HgN/A
3:20 AM57 °FPassing clouds.6 mph94%30.07 "HgN/A
2:50 AM57 °FPassing clouds.5 mph94%30.07 "HgN/A
2:20 AM57 °FPassing clouds.7 mph94%30.04 "HgN/A
1:50 AM59 °FPartly cloudy.7 mph88%30.04 "HgN/A
1:20 AM59 °FPassing clouds.10 mph88%30.04 "HgN/A
12:50 AM59 °FPassing clouds.9 mph88%30.04 "HgN/A
12:20 AM59 °FMostly cloudy.9 mph94%30.04 "HgN/A
11:50 PM
Sat, Jun 25
61 °FMostly cloudy.10 mph88%30.04 "HgN/A
11:20 PM61 °FPassing clouds.9 mph88%30.04 "HgN/A
Weather by CustomWeather, © 2016

See weather overviewHow to use our weather pages